MELBOURNE AIRPORT, Australia

9:58 AM AEDT on February 20, 2017 (GMT +1100)
MELBOURNE AIRPORT

Weather History for 94866 - August, 2013

Change the Weather History Date:

Monday, August 5, 2013

  Actual Average Record
Temperature  
Mean Temperature 54 °F -  
Max Temperature 59 °F 56 °F - ()
Min Temperature 49 °F 41 °F - ()
Degree Days  
Heating Degree Days 11    
Growing Degree Days 4 (Base 50)    
Moisture  
Dew Point 45 °F    
Average Humidity 71    
Maximum Humidity 94    
Minimum Humidity 50    
Precipitation  
Precipitation 0.00 in 0.07 in - ()
Sea Level Pressure  
Sea Level Pressure 29.81 in    
Wind  
Wind Speed 16 mph ()    
Max Wind Speed 30 mph    
Max Gust Speed 41 mph    
Visibility 7.7 miles    
Events Rain    
T = Trace of Precipitation, MM = Missing Value Source: Averaged Metar Reports

Daily Weather History Graph

Daily Weather History Graph

Search for Another Location

Airport or City:

Trip Planner

Search our weather history database for the weather conditions in past years. The results will help you decide how hot, cold, wet, or windy it might be!

Date:

Astronomy

Aug. 05, 2013 Rise Set
Actual Time 7:16 AM AEST 5:36 PM AEST
Civil Twilight 6:49 AM AEST 6:04 PM AEST
Nautical Twilight 6:17 AM AEST 6:35 PM AEST
Astronomical Twilight 5:47 AM AEST 7:06 PM AEST
Moon 5:44 AM AEST (8/5) 4:13 PM AEST (8/5)
Length of Visible Light 11h 15m
Length of Day
10h 20m
Waning Crescent, 3% of the Moon is Illuminated
Aug 5
Waning Crescent
Aug 7
New
Aug 14
First Quarter
Aug 21
Full
Aug 28
Last Quarter

Hourly Weather History & Observations

Time (AEST) Temp. Dew Point Humidity Pressure Visibility Wind Dir Wind Speed Gust Speed Precip Events Conditions
12:00 AM 53 °F 44 °F 62% 29.90 in 19 mi NNW 12.7 mph - -   Partly Cloudy
12:00 AM 53.6 °F 44.6 °F 72% 29.89 in - NNW 12.7 mph - N/A   Clear
12:30 AM 53.6 °F 44.6 °F 72% 29.89 in - NNW 12.7 mph - N/A   Clear
1:00 AM 52 °F 44 °F 68% 29.89 in - NNW 12.7 mph - -  
1:00 AM 51.8 °F 44.6 °F 76% 29.89 in - NNW 12.7 mph - N/A   Clear
1:30 AM 51.8 °F 44.6 °F 76% 29.86 in - NNW 13.8 mph - N/A   Clear
2:00 AM 51.8 °F 44.6 °F 76% 29.89 in - NNW 15.0 mph - N/A   Clear
2:30 AM 51.8 °F 44.6 °F 76% 29.86 in 6.2 mi NNW 13.8 mph - N/A   Mostly Cloudy
3:00 AM 51 °F 44 °F 70% 29.88 in 19 mi NNW 11.5 mph - -   Partly Cloudy
3:00 AM 51.8 °F 44.6 °F 76% 29.86 in 6.2 mi NNW 11.5 mph - N/A   Mostly Cloudy
3:30 AM 51.8 °F 44.6 °F 76% 29.86 in 6.2 mi North 13.8 mph - N/A   Mostly Cloudy
4:00 AM 50 °F 45 °F 76% 29.88 in - North 11.5 mph - -  
4:00 AM 50.0 °F 44.6 °F 82% 29.86 in 6.2 mi North 11.5 mph - N/A   Mostly Cloudy
4:30 AM 50.0 °F 44.6 °F 82% 29.86 in - North 11.5 mph - N/A   Clear
5:00 AM 50.0 °F 44.6 °F 82% 29.86 in 6.2 mi North 12.7 mph - N/A   Mostly Cloudy
5:30 AM 51.8 °F 44.6 °F 76% 29.86 in - North 13.8 mph - N/A   Clear
6:00 AM 51 °F 45 °F 72% 29.88 in 19 mi NNW 15.0 mph - -   Partly Cloudy
6:00 AM 51.8 °F 44.6 °F 76% 29.86 in - NNW 15.0 mph - N/A   Clear
6:30 AM 51.8 °F 44.6 °F 76% 29.86 in - North 13.8 mph - N/A   Clear
7:00 AM 51 °F 44 °F 70% 29.89 in - North 12.7 mph - -  
7:00 AM 51.8 °F 44.6 °F 76% 29.89 in - North 12.7 mph - N/A   Clear
7:30 AM 50.0 °F 42.8 °F 76% 29.89 in 6.2 mi North 11.5 mph - N/A   Mostly Cloudy
8:00 AM 51.8 °F 42.8 °F 71% 29.89 in 6.2 mi NNW 12.7 mph - N/A   Mostly Cloudy
8:30 AM 53.6 °F 42.8 °F 67% 29.89 in 6.2 mi North 16.1 mph - N/A   Scattered Clouds
9:00 AM 53 °F 43 °F 59% 29.91 in 19 mi North 17.3 mph - -   Partly Cloudy
9:00 AM 53.6 °F 42.8 °F 67% 29.89 in 6.2 mi North 17.3 mph - N/A   Mostly Cloudy
9:30 AM 53.6 °F 44.6 °F 72% 29.89 in 6.2 mi North 16.1 mph - N/A   Scattered Clouds
10:00 AM 53 °F 45 °F 67% 29.91 in - NW 18.4 mph - -  
10:00 AM 53.6 °F 44.6 °F 72% 29.89 in 6.2 mi NW 18.4 mph - N/A   Scattered Clouds
10:30 AM 57.2 °F 46.4 °F 67% 29.89 in 6.2 mi NNW 19.6 mph - N/A   Scattered Clouds
11:00 AM 55.4 °F 42.8 °F 63% 29.89 in 6.2 mi NNW 17.3 mph - N/A   Mostly Cloudy
11:21 AM 55.4 °F 42.8 °F 63% 29.86 in 6.2 mi NNW 17.3 mph 31.1 mph N/A   Mostly Cloudy
11:30 AM 55.4 °F 42.8 °F 63% 29.86 in 6.2 mi NNW 20.7 mph - N/A   Mostly Cloudy
12:00 PM 55 °F 44 °F 58% 29.87 in 25 mi North 17.3 mph - -   Mostly Cloudy
12:00 PM 55.4 °F 44.6 °F 67% 29.86 in 6.2 mi North 17.3 mph - N/A   Mostly Cloudy
12:30 PM 55.4 °F 44.6 °F 67% 29.86 in 6.2 mi North 17.3 mph - N/A   Mostly Cloudy
1:00 PM 57 °F 44 °F 52% 29.84 in - NW 19.6 mph - -  
1:00 PM 57.2 °F 44.6 °F 63% 29.83 in 6.2 mi NW 19.6 mph - N/A   Mostly Cloudy
1:30 PM 57.2 °F 44.6 °F 63% 29.83 in 6.2 mi NNW 13.8 mph - N/A   Mostly Cloudy
2:00 PM 57.2 °F 44.6 °F 63% 29.80 in 6.2 mi North 12.7 mph - N/A   Mostly Cloudy
2:30 PM 55.4 °F 44.6 °F 67% 29.77 in 6.2 mi North 17.3 mph - N/A   Mostly Cloudy
3:00 PM 57 °F 44 °F 51% 29.78 in 25 mi North 21.9 mph - -   Mostly Cloudy
3:00 PM 57.2 °F 44.6 °F 63% 29.77 in 6.2 mi North 21.9 mph - N/A   Mostly Cloudy
3:30 PM 57.2 °F 44.6 °F 63% 29.74 in 6.2 mi North 21.9 mph - N/A   Mostly Cloudy
4:00 PM 58 °F 44 °F 50% 29.77 in - NNW 19.6 mph - -  
4:00 PM 59.0 °F 44.6 °F 59% 29.74 in 6.2 mi NNW 19.6 mph - N/A   Mostly Cloudy
4:09 PM 59.0 °F 44.6 °F 59% 29.77 in 6.2 mi NNW 21.9 mph 35.7 mph N/A   Mostly Cloudy
4:30 PM 57.2 °F 44.6 °F 63% 29.74 in 6.2 mi North 23.0 mph - N/A   Mostly Cloudy
4:42 PM 57.2 °F 44.6 °F 63% 29.71 in 6.2 mi North 26.5 mph 38.0 mph N/A   Mostly Cloudy
5:00 PM 57.2 °F 44.6 °F 63% 29.74 in 6.2 mi North 25.3 mph 36.8 mph N/A   Mostly Cloudy
5:30 PM 57.2 °F 46.4 °F 67% 29.74 in 6.2 mi North 25.3 mph - N/A   Mostly Cloudy
6:00 PM 56 °F 46 °F 61% 29.76 in 25 mi North 23.0 mph - -   Partly Cloudy
6:00 PM 55.4 °F 46.4 °F 72% 29.74 in 6.2 mi North 23.0 mph - N/A   Mostly Cloudy
6:37 PM 55.4 °F 46.4 °F 72% 29.71 in - North 24.2 mph 35.7 mph N/A   Clear
7:00 PM 56 °F 47 °F 63% 29.75 in - North 28.8 mph - -  
7:00 PM 55.4 °F 46.4 °F 72% 29.74 in - North 28.8 mph - N/A   Clear
7:30 PM 55.4 °F 48.2 °F 77% 29.71 in - North 29.9 mph - N/A   Clear
8:00 PM 53.6 °F 48.2 °F 82% 29.71 in - North 28.8 mph - N/A   Clear
8:16 PM 53.6 °F 48.2 °F 82% 29.71 in - North 28.8 mph 40.3 mph N/A   Clear
8:30 PM 55.4 °F 48.2 °F 77% 29.71 in - North 28.8 mph - N/A   Clear
9:00 PM 54 °F 49 °F 77% 29.75 in 12 mi North 26.5 mph - - Rain Light Rain Showers
9:00 PM 53.6 °F 48.2 °F 82% 29.74 in 6.2 mi North 26.5 mph - N/A Rain Light Rain Showers
9:08 PM 53.6 °F 50.0 °F 88% 29.71 in 6.2 mi North 25.3 mph 36.8 mph N/A Rain Light Rain Showers
9:30 PM 53.6 °F 50.0 °F 88% 29.71 in 6.2 mi North 26.5 mph - N/A Rain Light Rain Showers
10:00 PM 53 °F 50 °F 85% 29.70 in - North 26.5 mph - -  
10:00 PM 53.6 °F 50.0 °F 88% 29.68 in - North 26.5 mph - N/A   Clear
10:09 PM 51.8 °F 50.0 °F 94% 29.68 in - North 26.5 mph 41.4 mph N/A   Clear
10:30 PM 53.6 °F 48.2 °F 82% 29.65 in - North 23.0 mph - N/A   Clear
11:00 PM 53.6 °F 48.2 °F 82% 29.65 in - North 29.9 mph - N/A   Clear
11:30 PM 53.6 °F 48.2 °F 82% 29.62 in - North 29.9 mph - N/A   Clear